Change the Weather History Date:

Thursday, May 23, 2013

  Actual Average Record
Temperature  
Mean Temperature 45 °F -  
Max Temperature 50 °F - - ()
Min Temperature 40 °F - - ()
Degree Days  
Heating Degree Days 20    
Moisture  
Dew Point 37 °F    
Average Humidity 69    
Maximum Humidity 87    
Minimum Humidity 49    
Precipitation  
Precipitation 0.04 in - - ()
Sea Level Pressure  
Sea Level Pressure 30.21 in    
Wind  
Wind Speed 20 mph ()    
Max Wind Speed 29 mph    
Max Gust Speed 40 mph    
Visibility 7.0 miles    
Events Rain    
T = Trace of Precipitation, MM = Missing Value Source: Averaged Metar Reports

Daily Weather History Graph

Daily Weather History Graph

Search for Another Location

Airport or City:

Trip Planner

Search our weather history database for the weather conditions in past years. The results will help you decide how hot, cold, wet, or windy it might be!

Date:

Astronomy

May. 23, 2013 Rise Set
Actual Time 5:20 AM IST 9:44 PM IST
Civil Twilight 4:32 AM IST 10:32 PM IST
Nautical Twilight 3:19 AM IST 11:47 PM IST
Astronomical Twilight 2:04 AM IST 12:59 AM IST
Moon 7:47 PM IST (5/23) 4:15 AM IST (5/23)
Length of Visible Light 18h 00m
Length of Day
16h 23m
Waxing Gibbous, 96% of the Moon is Illuminated
May 23
Waxing Gibbous
May 25
Full
May 31
Last Quarter
Jun 8
New
Jun 16
First Quarter

Hourly Weather History & Observations

Time (IST) Temp. Windchill Dew Point Humidity Pressure Visibility Wind Dir Wind Speed Gust Speed Precip Events Conditions
1:00 AM 42 °F - 38 °F 81% 30.29 in - NNW 15.7 mph - -  
7:00 AM 43 °F - 36 °F 67% 30.25 in 19 mi NNW 20.1 mph - - Rain Light Rain Showers
7:00 AM 42.8 °F 34.0 °F 35.6 °F 76% 30.21 in 6.2 mi NNW 20.7 mph 32.2 mph N/A   Partly Cloudy
7:30 AM 42.8 °F 34.3 °F 35.6 °F 76% 30.21 in 6.2 mi NNW 19.6 mph - N/A   Partly Cloudy
8:00 AM 44.6 °F 35.9 °F 35.6 °F 71% 30.21 in 6.2 mi NNW 23.0 mph 35.7 mph N/A   Partly Cloudy
8:30 AM 44.6 °F 35.9 °F 35.6 °F 71% 30.21 in 6.2 mi NNW 23.0 mph - N/A   Scattered Clouds
9:00 AM 46.4 °F 38.3 °F 35.6 °F 66% 30.24 in 6.2 mi NNW 23.0 mph - N/A   Scattered Clouds
9:30 AM 46.4 °F 37.9 °F 39.2 °F 76% 30.21 in 6.2 mi NNW 25.3 mph 38.0 mph N/A   Scattered Clouds
10:00 AM 44.6 °F 36.4 °F 39.2 °F 81% 30.21 in 6.2 mi North 20.7 mph 39.1 mph N/A   Scattered Clouds
10:30 AM 48.2 °F - 35.6 °F 62% 30.21 in 6.2 mi NNW 25.3 mph 38.0 mph N/A   Scattered Clouds
11:00 AM 48.2 °F - 33.8 °F 58% 30.21 in 6.2 mi NNW 24.2 mph 38.0 mph N/A   Scattered Clouds
11:30 AM 48.2 °F - 35.6 °F 62% 30.21 in 6.2 mi NNW 25.3 mph 38.0 mph N/A   Mostly Cloudy
12:00 PM 48.2 °F - 37.4 °F 66% 30.21 in 6.2 mi NNW 23.0 mph - N/A   Mostly Cloudy
12:30 PM 48.2 °F - 37.4 °F 66% 30.21 in 6.2 mi North 20.7 mph - N/A   Scattered Clouds
1:00 PM 49 °F - 36 °F 49% 30.23 in 19 mi NNW 24.6 mph - - Rain Light Rain Showers
1:00 PM 50.0 °F - 35.6 °F 58% 30.21 in 6.2 mi NNW 25.3 mph 36.8 mph N/A   Scattered Clouds
1:30 PM 48.2 °F - 37.4 °F 66% 30.21 in 4.3 mi NNW 24.2 mph 36.8 mph N/A Rain Light Rain Showers
2:00 PM 48.2 °F - 39.2 °F 71% 30.21 in 6.2 mi NNW 27.6 mph - N/A   Scattered Clouds
2:30 PM 50.0 °F - 35.6 °F 58% 30.18 in 6.2 mi NNW 26.5 mph - N/A   Scattered Clouds
3:00 PM 50.0 °F - 37.4 °F 62% 30.18 in 6.2 mi NW 26.5 mph 38.0 mph N/A   Partly Cloudy
3:30 PM 46.4 °F 37.4 °F 41.0 °F 81% 30.18 in 5.6 mi NNW 28.8 mph 40.3 mph N/A Rain Light Rain Showers
4:00 PM 44.6 °F 35.1 °F 41.0 °F 87% 30.18 in 6.2 mi NNW 27.6 mph 40.3 mph N/A   Mostly Cloudy
4:30 PM 48.2 °F - 37.4 °F 66% 30.18 in 3.1 mi NNW 26.5 mph 39.1 mph N/A Rain Light Rain Showers
5:00 PM 48.2 °F - 39.2 °F 71% 30.18 in 6.2 mi NW 23.0 mph 34.5 mph N/A   Scattered Clouds
5:30 PM 46.4 °F 38.1 °F 39.2 °F 76% 30.18 in 6.2 mi NNW 24.2 mph 39.1 mph N/A   Partly Cloudy
6:00 PM 44.6 °F 35.7 °F 41.0 °F 87% 30.18 in 6.2 mi NNW 24.2 mph 40.3 mph N/A   Partly Cloudy
7:00 PM 47 °F - 35 °F 52% 30.20 in 22 mi NNW 24.6 mph - - Rain Light Rain Showers